TimeEDT,TemperatureF,Dew PointF,Humidity,Sea Level PressureIn,VisibilityMPH,Wind Direction,Wind SpeedMPH,Gust SpeedMPH,PrecipitationIn,Events,Conditions,WindDirDegrees,DateUTC
12:39 AM,73.0,71.1,93,30.15,4.0,NE,5.8,-,0.04,Rain-Thunderstorm,Light Thunderstorms and Rain,50,2013-08-18 04:39:00
12:56 AM,73.0,71.1,93,30.14,3.0,East,3.5,-,0.07,Rain,Rain,80,2013-08-18 04:56:00
1:06 AM,73.0,71.1,93,30.14,3.0,East,4.6,-,0.02,Rain-Thunderstorm,Thunderstorms and Rain,80,2013-08-18 05:06:00
1:50 AM,73.4,71.6,94,30.14,4.0,NNE,3.5,-,0.07,Rain-Thunderstorm,Light Thunderstorms and Rain,20,2013-08-18 05:50:00
1:56 AM,73.0,71.1,93,30.15,3.0,North,4.6,-,0.08,Rain-Thunderstorm,Thunderstorms and Rain,10,2013-08-18 05:56:00
2:06 AM,73.0,71.1,93,30.16,1.8,South,4.6,-,0.03,Rain-Thunderstorm,Heavy Thunderstorms and Rain,170,2013-08-18 06:06:00
2:09 AM,73.0,72.0,96,30.16,1.5,South,4.6,-,0.04,Rain,Heavy Rain,190,2013-08-18 06:09:00
2:14 AM,73.0,71.1,93,30.15,1.8,South,4.6,-,0.06,Rain,Rain,170,2013-08-18 06:14:00
2:19 AM,73.0,71.1,93,30.14,2.0,SSE,4.6,-,0.09,Rain,Heavy Rain,160,2013-08-18 06:19:00
2:27 AM,72.0,70.0,93,30.13,3.0,SE,5.8,-,0.11,Rain,Rain,140,2013-08-18 06:27:00
2:56 AM,72.0,70.0,93,30.12,10.0,SE,6.9,-,0.14,,Scattered Clouds,140,2013-08-18 06:56:00
3:38 AM,72.0,70.0,93,30.12,10.0,SSE,3.5,-,N/A,,Partly Cloudy,160,2013-08-18 07:38:00
3:56 AM,72.0,71.1,97,30.12,10.0,SSE,4.6,-,N/A,,Partly Cloudy,150,2013-08-18 07:56:00
4:56 AM,72.0,70.0,93,30.12,10.0,Calm,Calm,-,N/A,,Clear,0,2013-08-18 08:56:00
5:56 AM,73.0,71.1,93,30.13,10.0,Calm,Calm,-,N/A,,Partly Cloudy,0,2013-08-18 09:56:00
6:56 AM,72.0,70.0,93,30.14,10.0,Calm,Calm,-,N/A,,Clear,0,2013-08-18 10:56:00
7:56 AM,75.0,72.0,90,30.14,10.0,Calm,Calm,-,N/A,,Clear,0,2013-08-18 11:56:00
8:56 AM,80.1,73.0,79,30.17,10.0,Calm,Calm,-,N/A,,Clear,0,2013-08-18 12:56:00
9:56 AM,82.0,72.0,71,30.17,10.0,Calm,Calm,-,N/A,,Clear,0,2013-08-18 13:56:00
10:56 AM,84.0,73.0,69,30.19,10.0,Calm,Calm,-,N/A,,Clear,0,2013-08-18 14:56:00
11:56 AM,86.0,73.9,67,30.18,10.0,Variable,3.5,-,N/A,,Clear,0,2013-08-18 15:56:00
12:56 PM,87.1,73.9,65,30.17,10.0,Variable,4.6,-,N/A,,Partly Cloudy,0,2013-08-18 16:56:00
1:56 PM,86.0,73.9,67,30.14,10.0,ENE,9.2,-,N/A,,Overcast,70,2013-08-18 17:56:00
2:41 PM,88.0,75.0,65,30.13,10.0,ESE,9.2,-,N/A,,Mostly Cloudy,120,2013-08-18 18:41:00
2:52 PM,86.0,73.4,66,30.13,10.0,ESE,10.4,-,N/A,,Mostly Cloudy,110,2013-08-18 18:52:00
2:56 PM,87.1,73.9,65,30.13,10.0,ESE,11.5,-,N/A,,Mostly Cloudy,110,2013-08-18 18:56:00
3:56 PM,88.0,73.9,63,30.12,10.0,SE,8.1,-,N/A,,Mostly Cloudy,140,2013-08-18 19:56:00
4:56 PM,87.1,73.0,63,30.11,10.0,SE,10.4,-,N/A,,Mostly Cloudy,130,2013-08-18 20:56:00
5:56 PM,84.9,73.9,69,30.11,10.0,SE,8.1,-,N/A,,Mostly Cloudy,130,2013-08-18 21:56:00
6:56 PM,82.9,75.0,77,30.11,10.0,SE,10.4,-,N/A,,Clear,130,2013-08-18 22:56:00
7:56 PM,81.0,75.9,85,30.12,10.0,SE,6.9,-,N/A,,Clear,130,2013-08-18 23:56:00
8:56 PM,81.0,77.0,88,30.14,10.0,Calm,Calm,-,N/A,,Clear,0,2013-08-19 00:56:00
9:43 PM,78.1,75.0,90,30.15,1.8,SE,11.5,-,0.12,Rain,Heavy Rain,130,2013-08-19 01:43:00
9:52 PM,77.0,73.4,89,30.15,3.0,ESE,6.9,-,0.13,Rain,Light Rain,110,2013-08-19 01:52:00
9:56 PM,77.0,73.0,88,30.15,9.0,East,6.9,-,0.13,Rain,Light Rain,100,2013-08-19 01:56:00
10:56 PM,77.0,73.9,90,30.16,10.0,Calm,Calm,-,0.00,,Mostly Cloudy,0,2013-08-19 02:56:00
11:56 PM,78.1,73.9,87,30.15,10.0,Calm,Calm,-,N/A,,Overcast,0,2013-08-19 03:56:00